Weather in Sarafanovka

Russia / Tomsk District     57°42′48″N   83°27′21″E
temp.,
°C
wind,
m/s
gust,
m/s
humid.,
%
clouds,
%
prec.,
mm/h
press.,
hPa
HPBL,
m
20 january, wed
wed2001:00−30w239756 0.0 102350
04:00−32w22960 0.0 102619
07:00−33w12960 0.0 102819
10:00−34wsw22960 0.0 103019
13:00−29wsw12930 0.0 1032176
16:00−28sse119542 0.0 103136
19:00−31sse129621 0.0 103219
22:00−31se229660 0.0 103019
21 january, thu
thu2101:00−30ese249680 0.0 1029126
04:00−28ese3694100 0.0 1026223
07:00−26e3694100 0.0 1024247
10:00−26ese3794100 0.0 1021288
13:00−23se3596100 0.3 1019310
16:00−22se2496100 0.1 1016302
19:00−23sse2498100 0.2 1015117
22:00−22s2498100 0.0 101394
22 january, fri
fri2201:00−23ssw239898 0.0 101247
04:00−23ssw239993 0.0 101175
07:00−25sw239891 0.0 101053
10:00−26sw239877 0.0 101053
13:00−23wsw249554 0.0 1011198
16:00−23wsw139613 0.0 1011104
19:00−26wsw229734 0.0 101223
22:00−27w229819 0.0 101422
23 january, sat
sat2301:00−29wsw239810 0.0 101634
04:00−30wsw23978 0.0 101935
07:00−29wsw239751 0.0 102167
10:00−26sw2698100 0.1 1024259
13:00−24sw2494100 0.2 1025368
16:00−23wsw2494100 0.1 1026483
19:00−24wsw1298100 0.2 102873
22:00−25wnw1299100 0.1 102966
24 january, sun
sun2401:00−29nnw229999 0.1 102941
04:00−31nw129899 0.0 103137
07:00−27wnw119899 0.1 103125
10:00−29nnw2398100 0.1 1032100
13:00−28nw2396100 0.1 1033241
16:00−29nw2395100 0.1 1034324
19:00−35nnw239899 0.1 103677
22:00−39nw229779 0.0 103849